Weather History for KHOP - October, 2011

Change the Weather History Date:

Friday, October 28, 2011

  Actual Average Record
Temperature  
Mean Temperature 42 °F -  
Max Temperature 49 °F 66 °F 80 °F (1999)
Min Temperature 35 °F 45 °F 26 °F (2001)
Degree Days  
Heating Degree Days 22    
Moisture  
Dew Point 40 °F    
Average Humidity 86    
Maximum Humidity 99    
Minimum Humidity 58    
Precipitation  
Precipitation 0.20 in - - ()
Sea Level Pressure  
Sea Level Pressure 30.14 in    
Wind  
Wind Speed 6 mph (NE)    
Max Wind Speed 12 mph    
Max Gust Speed -    
Visibility 10 miles    
Events Rain    
Averages and records for this station are not official NWS values.
T = Trace of Precipitation, MM = Missing Value Source: NWS Daily Summary

Daily Weather History Graph

Daily Weather History Graph

Search for Another Location

Airport or City:

Trip Planner

Search our weather history database for the weather conditions in past years. The results will help you decide how hot, cold, wet, or windy it might be!

Date:

Astronomy

Oct. 28, 2011 Rise Set
Actual Time 7:09 AM CDT 5:57 PM CDT
Civil Twilight 6:42 AM CDT 6:24 PM CDT
Nautical Twilight 6:12 AM CDT 6:54 PM CDT
Astronomical Twilight 5:42 AM CDT 7:24 PM CDT
Moon 9:19 AM CDT (10/28) 7:25 PM CDT (10/28)
Length of Visible Light 11h 41m
Length of Day
10h 48m
Waxing Crescent, 5% of the Moon is Illuminated
Oct 28
Waxing Crescent
Nov 2
First Quarter
Nov 10
Full
Nov 18
Last Quarter
Nov 25
New

Hourly Weather History & Observations

Time (CDT) Temp. Windchill Dew Point Humidity Pressure Visibility Wind Dir Wind Speed Gust Speed Precip Events Conditions
12:55 AM 47.1 °F - 43.0 °F 86% 30.09 in 10.0 mi NE 9.2 mph - N/A   Overcast
1:55 AM 46.8 °F - 41.4 °F 81% 30.10 in 10.0 mi Variable 5.8 mph - N/A   Overcast
2:55 AM 45.9 °F 43.6 °F 42.1 °F 87% 30.10 in 10.0 mi NNE 4.6 mph - N/A   Overcast
3:55 AM 45.3 °F 41.6 °F 42.1 °F 88% 30.07 in 10.0 mi NNE 6.9 mph - N/A   Mostly Cloudy
4:55 AM 45.7 °F 44.4 °F 39.9 °F 80% 30.12 in 10.0 mi Variable 3.5 mph - N/A   Overcast
5:45 AM 44.6 °F 41.4 °F 41.0 °F 87% 30.11 in 10.0 mi Variable 5.8 mph - N/A   Light Drizzle
5:55 AM 44.8 °F 39.0 °F 41.2 °F 87% 30.11 in 10.0 mi NE 11.5 mph - 0.00 in   Light Drizzle
6:35 AM 44.6 °F 40.7 °F 41.0 °F 87% 30.11 in 10.0 mi NE 6.9 mph - N/A Rain Light Rain
6:46 AM 44.6 °F 42.2 °F 41.0 °F 87% 30.14 in 10.0 mi Variable 4.6 mph - N/A   Light Drizzle
6:55 AM 43.7 °F 41.1 °F 41.4 °F 91% 30.14 in 10.0 mi NNE 4.6 mph - 0.03 in Rain Light Rain
7:00 AM 44.6 °F 43.1 °F 41.0 °F 87% 30.12 in 10.0 mi Variable 3.5 mph - N/A Rain Light Rain
7:05 AM 44.6 °F 43.1 °F 41.0 °F 87% 30.12 in 6.0 mi NNE 3.5 mph - N/A Rain Light Rain
7:06 AM 42.8 °F 40.1 °F 41.0 °F 93% 30.14 in 7.0 mi Variable 4.6 mph - N/A Rain Light Rain
7:55 AM 42.8 °F 40.1 °F 41.2 °F 94% 30.14 in 10.0 mi Variable 4.6 mph - 0.06 in   Drizzle
8:12 AM 42.8 °F 39.3 °F 41.0 °F 93% 30.14 in 6.0 mi NE 5.8 mph - N/A Rain Light Rain
8:55 AM 42.8 °F 37.0 °F 40.5 °F 91% 30.15 in 10.0 mi NE 10.4 mph - 0.07 in Rain Light Rain
8:57 AM 42.8 °F 37.5 °F 41.0 °F 93% 30.15 in 10.0 mi NE 9.2 mph - N/A Rain Light Rain
9:32 AM 42.8 °F 37.5 °F 41.0 °F 93% 30.15 in 10.0 mi ENE 9.2 mph - N/A Rain Light Rain
9:55 AM 43.2 °F 37.9 °F 40.8 °F 91% 30.16 in 10.0 mi ENE 9.2 mph - 0.04 in Rain Light Rain
10:00 AM 42.8 °F 38.6 °F 41.0 °F 93% 30.16 in 10.0 mi NE 6.9 mph - N/A   Light Drizzle
10:13 AM 42.8 °F 41.1 °F 41.0 °F 93% 30.17 in 10.0 mi Variable 3.5 mph - N/A   Overcast
10:21 AM 42.8 °F 41.1 °F 41.0 °F 93% 30.18 in 10.0 mi NNE 3.5 mph - N/A   Light Drizzle
10:38 AM 44.6 °F 40.7 °F 41.0 °F 87% 30.17 in 10.0 mi NE 6.9 mph - N/A   Mostly Cloudy
10:39 AM 44.6 °F 40.7 °F 41.0 °F 87% 30.16 in 10.0 mi NE 6.9 mph - N/A   Overcast
10:55 AM 44.6 °F 39.2 °F 41.0 °F 87% 30.15 in 10.0 mi NE 10.4 mph - 0.00 in   Overcast
11:53 AM 44.6 °F 40.7 °F 41.0 °F 87% 30.17 in 10.0 mi NE 6.9 mph - N/A   Light Drizzle
11:55 AM 45.0 °F 41.2 °F 40.6 °F 85% 30.17 in 10.0 mi NE 6.9 mph - 0.00 in   Light Drizzle
12:37 PM 44.6 °F 41.4 °F 41.0 °F 87% 30.14 in 10.0 mi NE 5.8 mph - N/A   Overcast
12:55 PM 46.4 °F 42.9 °F 41.0 °F 81% 30.14 in 10.0 mi Variable 6.9 mph - 0.00 in   Overcast
1:55 PM 47.3 °F - 40.3 °F 77% 30.11 in 10.0 mi NNE 8.1 mph - N/A   Overcast
2:19 PM 46.4 °F 43.5 °F 39.2 °F 76% 30.12 in 10.0 mi North 5.8 mph - N/A   Overcast
2:23 PM 46.4 °F 44.3 °F 39.2 °F 76% 30.12 in 10.0 mi Variable 4.6 mph - N/A   Overcast
2:39 PM 48.2 °F - 39.2 °F 71% 30.12 in 10.0 mi Variable 4.6 mph - N/A   Overcast
2:55 PM 47.8 °F - 39.0 °F 71% 30.11 in 10.0 mi Variable 5.8 mph - N/A   Overcast
3:55 PM 49.1 °F - 34.9 °F 58% 30.11 in 10.0 mi Variable 6.9 mph - N/A   Scattered Clouds
4:55 PM 48.6 °F - 36.5 °F 63% 30.11 in 10.0 mi NE 6.9 mph - N/A   Partly Cloudy
5:55 PM 47.8 °F - 37.2 °F 67% 30.12 in 10.0 mi Calm Calm - N/A   Clear
6:55 PM 42.6 °F - 39.2 °F 88% 30.13 in 10.0 mi Calm Calm - N/A   Partly Cloudy
7:55 PM 41.4 °F - 38.5 °F 89% 30.16 in 10.0 mi Calm Calm - N/A   Clear
8:55 PM 39.4 °F - 38.8 °F 98% 30.16 in 10.0 mi Calm Calm - N/A   Clear
9:55 PM 38.7 °F - 38.1 °F 98% 30.17 in 10.0 mi Calm Calm - N/A   Clear
10:55 PM 36.3 °F - 35.2 °F 96% 30.16 in 9.0 mi Calm Calm - N/A   Clear
11:55 PM 35.4 °F 32.6 °F 35.1 °F 99% 30.17 in 10.0 mi SW 3.5 mph - N/A   Clear